Location: Unspecified
(49.8670°N, 0.0000°E)
Time: 02:40:46
(UTC+00:00)

S-56A Canister/Altair - Pass Details

Date: 23 June 2019
Orbit: 632 x 2500 km, 38.9° (Epoch: 22 July)

Event Time Altitude Azimuth Distance (km) Brightness Sun altitude
Rises 19:11:05 0° 263° (W) 4,177 12.3 7.4°
Reaches altitude 10° 19:14:52 10° 251° (WSW) 2,885 11.2 6.9°
Maximum altitude 19:19:57 23° 201° (SSW) 1,720 9.3 6.2°
Drops below altitude 10° 19:23:59 10° 148° (SSE) 2,225 9.4 5.6°
Sets 19:26:30 0° 133° (SE) 3,021 9.9 5.2°
